Weather History for KMHV - November, 2012

Change the Weather History Date:

Wednesday, November 14, 2012

  Actual Average Record
Temperature  
Mean Temperature 48 °F -  
Max Temperature 64 °F 64 °F 80 °F (1967)
Min Temperature 33 °F 40 °F 27 °F (1968)
Degree Days  
Heating Degree Days 16    
Moisture  
Dew Point 7 °F    
Average Humidity 19    
Maximum Humidity 26    
Minimum Humidity 11    
Precipitation  
Precipitation 0.00 in - - ()
Sea Level Pressure  
Sea Level Pressure 30.16 in    
Wind  
Wind Speed 3 mph (NNW)    
Max Wind Speed 9 mph    
Max Gust Speed -    
Visibility 10 miles    
Events      
Averages and records for this station are not official NWS values.
T = Trace of Precipitation, MM = Missing Value Source: NWS Daily Summary

Daily Weather History Graph

Daily Weather History Graph

Search for Another Location

Airport or City:

Trip Planner

Search our weather history database for the weather conditions in past years. The results will help you decide how hot, cold, wet, or windy it might be!

Date:

Astronomy

Nov. 14, 2012 Rise Set
Actual Time 6:26 AM PST 4:47 PM PST
Civil Twilight 5:59 AM PST 5:14 PM PST
Nautical Twilight 5:29 AM PST 5:44 PM PST
Astronomical Twilight 4:59 AM PST 6:14 PM PST
Moon 7:19 AM PST (11/14) 5:43 PM PST (11/14)
Length of Visible Light 11h 14m
Length of Day
10h 20m
New Moon, 1% of the Moon is Illuminated
Nov 14
New Moon
Nov 20
First Quarter
Nov 28
Full
Dec 6
Last Quarter
Dec 13
New

Hourly Weather History & Observations

Time (PST) Temp. Windchill Dew Point Humidity Pressure Visibility Wind Dir Wind Speed Gust Speed Precip Events Conditions
12:15 AM 39.2 °F 33.6 °F 3.2 °F 22% 30.19 in 10.0 mi NW 8.1 mph - N/A   Clear
12:35 AM 39.2 °F 34.2 °F 3.2 °F 22% 30.19 in 9.0 mi NW 6.9 mph - N/A   Clear
12:55 AM 39.2 °F - 1.4 °F 21% 30.19 in 10.0 mi Calm Calm - N/A   Clear
1:15 AM 37.4 °F 32.1 °F 1.4 °F 22% 30.18 in 10.0 mi NW 6.9 mph - N/A   Clear
1:35 AM 37.4 °F 31.4 °F 1.4 °F 22% 30.18 in 10.0 mi NNW 8.1 mph - N/A   Clear
1:55 AM 37.4 °F 31.4 °F 3.2 °F 24% 30.18 in 10.0 mi NNW 8.1 mph - N/A   Clear
2:15 AM 37.4 °F 32.1 °F 3.2 °F 24% 30.17 in 10.0 mi NNW 6.9 mph - N/A   Clear
2:35 AM 35.6 °F 30.7 °F 3.2 °F 26% 30.17 in 10.0 mi NNW 5.8 mph - N/A   Clear
2:55 AM 35.6 °F 31.7 °F 1.4 °F 24% 30.17 in 10.0 mi NW 4.6 mph - N/A   Clear
3:15 AM 35.6 °F - 1.4 °F 24% 30.17 in 10.0 mi Calm Calm - N/A   Clear
3:35 AM 35.6 °F - 1.4 °F 24% 30.17 in 10.0 mi Calm Calm - N/A   Clear
3:55 AM 35.6 °F 31.7 °F 1.4 °F 24% 30.17 in 10.0 mi NW 4.6 mph - N/A   Clear
4:15 AM 35.6 °F - 1.4 °F 24% 30.17 in 10.0 mi Calm Calm - N/A   Clear
4:35 AM 33.8 °F - 1.4 °F 25% 30.17 in 10.0 mi Calm Calm - N/A   Clear
4:55 AM 35.6 °F - 1.4 °F 24% 30.17 in 10.0 mi Calm Calm - N/A   Clear
5:15 AM 33.8 °F - 1.4 °F 25% 30.18 in 10.0 mi Calm Calm - N/A   Clear
5:35 AM 33.8 °F - 1.4 °F 25% 30.17 in 10.0 mi Calm Calm - N/A   Clear
5:55 AM 35.6 °F - 3.2 °F 26% 30.17 in 10.0 mi Calm Calm - N/A   Clear
6:15 AM 33.8 °F - 1.4 °F 25% 30.17 in 10.0 mi Calm Calm - N/A   Clear
6:35 AM 33.8 °F - 1.4 °F 25% 30.18 in 8.0 mi Calm Calm - N/A   Clear
6:55 AM 35.6 °F - 3.2 °F 26% 30.18 in 10.0 mi Calm Calm - N/A   Clear
7:15 AM 37.4 °F - 5.0 °F 26% 30.19 in 10.0 mi Calm Calm - N/A   Clear
7:35 AM 39.2 °F - 5.0 °F 24% 30.21 in 10.0 mi Calm Calm - N/A   Clear
7:55 AM 41.0 °F - 6.8 °F 24% 30.21 in 9.0 mi Calm Calm - N/A   Clear
8:15 AM 44.6 °F - 6.8 °F 21% 30.21 in 10.0 mi Calm Calm - N/A   Clear
8:35 AM 46.4 °F - 8.6 °F 22% 30.21 in 9.0 mi Calm Calm - N/A   Clear
8:55 AM 48.2 °F - 6.8 °F 19% 30.21 in 10.0 mi Calm Calm - N/A   Clear
9:15 AM 50.0 °F - 6.8 °F 17% 30.22 in 10.0 mi Calm Calm - N/A   Clear
9:35 AM 50.0 °F - 6.8 °F 17% 30.21 in 10.0 mi Calm Calm - N/A   Clear
9:55 AM 51.8 °F - 6.8 °F 16% 30.22 in 10.0 mi Calm Calm - N/A   Clear
10:15 AM 53.6 °F - 8.6 °F 16% 30.21 in 10.0 mi Calm Calm - N/A   Clear
10:35 AM 55.4 °F - 8.6 °F 15% 30.21 in 10.0 mi Calm Calm - N/A   Clear
10:55 AM 55.4 °F - 8.6 °F 15% 30.20 in 10.0 mi Calm Calm - N/A   Clear
11:15 AM 57.2 °F - 8.6 °F 14% 30.19 in 10.0 mi Calm Calm - N/A   Clear
11:35 AM 59.0 °F - 8.6 °F 14% 30.18 in 10.0 mi Calm Calm - N/A   Clear
11:55 AM 60.8 °F - 8.6 °F 13% 30.17 in 10.0 mi NE 3.5 mph - N/A   Clear
12:15 PM 62.6 °F - 8.6 °F 12% 30.16 in 10.0 mi NE 5.8 mph - N/A   Clear
12:35 PM 62.6 °F - 8.6 °F 12% 30.15 in 10.0 mi ENE 8.1 mph - N/A   Clear
12:55 PM 64.4 °F - 8.6 °F 11% 30.14 in 10.0 mi NE 3.5 mph - N/A   Clear
1:15 PM 64.4 °F - 8.6 °F 11% 30.14 in 10.0 mi Calm Calm - N/A   Clear
1:35 PM 64.4 °F - 8.6 °F 11% 30.13 in 10.0 mi ESE 3.5 mph - N/A   Clear
1:55 PM 64.4 °F - 10.4 °F 12% 30.13 in 10.0 mi Calm Calm - N/A   Clear
2:15 PM 64.4 °F - 10.4 °F 12% 30.13 in 10.0 mi Calm Calm - N/A   Clear
2:35 PM 64.4 °F - 10.4 °F 12% 30.12 in 10.0 mi Calm Calm - N/A   Clear
2:55 PM 64.4 °F - 10.4 °F 12% 30.12 in 10.0 mi Calm Calm - N/A   Clear
3:15 PM 64.4 °F - 12.2 °F 13% 30.12 in 10.0 mi Calm Calm - N/A   Clear
3:35 PM 64.4 °F - 10.4 °F 12% 30.11 in 10.0 mi Calm Calm - N/A   Clear
3:55 PM 62.6 °F - 10.4 °F 13% 30.11 in 10.0 mi Calm Calm - N/A   Clear
4:15 PM 62.6 °F - 10.4 °F 13% 30.11 in 10.0 mi Calm Calm - N/A   Clear
4:35 PM 60.8 °F - 10.4 °F 14% 30.11 in 10.0 mi Calm Calm - N/A   Clear
4:55 PM 59.0 °F - 10.4 °F 15% 30.12 in 10.0 mi Calm Calm - N/A   Clear
5:15 PM 57.2 °F - 10.4 °F 16% 30.12 in 10.0 mi Calm Calm - N/A   Clear
5:35 PM 51.8 °F - 8.6 °F 18% 30.12 in 10.0 mi Calm Calm - N/A   Clear
5:55 PM 50.0 °F - 6.8 °F 17% 30.12 in 5.0 mi Calm Calm - N/A   Clear
6:15 PM 50.0 °F - 8.6 °F 19% 30.13 in 10.0 mi NW 3.5 mph - N/A   Clear
6:35 PM 50.0 °F - 8.6 °F 19% 30.13 in 10.0 mi NW 8.1 mph - N/A   Clear
6:55 PM 48.2 °F - 8.6 °F 20% 30.13 in 10.0 mi NW 9.2 mph - N/A   Clear
7:15 PM 48.2 °F - 8.6 °F 20% 30.12 in 10.0 mi NNW 8.1 mph - N/A   Clear
7:35 PM 48.2 °F - 8.6 °F 20% 30.13 in 10.0 mi NW 8.1 mph - N/A   Clear
7:55 PM 48.2 °F - 8.6 °F 20% 30.13 in 10.0 mi NNW 6.9 mph - N/A   Clear
8:15 PM 48.2 °F - 8.6 °F 20% 30.14 in 10.0 mi Calm Calm - N/A   Clear
8:35 PM 50.0 °F - 8.6 °F 19% 30.15 in 10.0 mi Calm Calm - N/A   Clear
8:55 PM 48.2 °F - 8.6 °F 20% 30.15 in 10.0 mi Calm Calm - N/A   Clear
9:15 PM 48.2 °F - 8.6 °F 20% 30.15 in 10.0 mi Calm Calm - N/A   Clear
9:35 PM 48.2 °F - 8.6 °F 20% 30.15 in 10.0 mi Calm Calm - N/A   Clear
9:55 PM 48.2 °F - 8.6 °F 20% 30.14 in 10.0 mi Calm Calm - N/A   Clear
10:15 PM 46.4 °F - 8.6 °F 22% 30.14 in 10.0 mi Calm Calm - N/A   Clear
10:35 PM 46.4 °F 42.9 °F 8.6 °F 22% 30.14 in 10.0 mi NNW 6.9 mph - N/A   Clear
10:55 PM 46.4 °F - 8.6 °F 22% 30.13 in 10.0 mi Calm Calm - N/A   Clear
11:15 PM 48.2 °F - 8.6 °F 20% 30.14 in 10.0 mi Calm Calm - N/A   Clear
11:35 PM 48.2 °F - 8.6 °F 20% 30.14 in 10.0 mi Calm Calm - N/A   Clear
11:55 PM 46.4 °F - 8.6 °F 22% 30.13 in 10.0 mi Calm Calm - N/A   Clear